Lihue, HI

3:35 AM HST on April 27, 2017 (GMT -1000)
Lihue

Weather History for PHLI - November, 2012

Change the Weather History Date:

Wednesday, November 14, 2012

  Actual Average Record
Temperature  
Mean Temperature 78 °F 76 °F  
Max Temperature 83 °F 81 °F 86 °F (2010)
Min Temperature 73 °F 71 °F 61 °F (1950)
Degree Days  
Heating Degree Days 0 0  
Month to date heating degree days 0 0  
Since 1 July heating degree days 0 0  
Cooling Degree Days 13 11  
Month to date cooling degree days 180 161  
Year to date cooling degree days 3667 3528  
Growing Degree Days 28 (Base 50)    
Moisture  
Dew Point 66 °F    
Average Humidity 70    
Maximum Humidity 84    
Minimum Humidity 55    
Precipitation  
Precipitation 0.08 in 0.15 in 1.04 in (1965)
Month to date precipitation 0.39 2.12  
Year to date precipitation 36.62 29.51  
Snow  
Snow 0.00 in - - ()
Month to date snowfall 0.0  
Since 1 July snowfall 0.0  
Since 1 September snowfall 0.0  
Snow Depth 0.00 in    
Sea Level Pressure  
Sea Level Pressure 30.14 in    
Wind  
Wind Speed 17 mph (NE)    
Max Wind Speed 26 mph    
Max Gust Speed 38 mph    
Visibility 10 miles    
Events Rain    
T = Trace of Precipitation, MM = Missing Value Source: NWS Daily Summary

Daily Weather History Graph

Daily Weather History Graph

Search for Another Location

Airport or City:

Trip Planner

Search our weather history database for the weather conditions in past years. The results will help you decide how hot, cold, wet, or windy it might be!

Date:

Astronomy

Nov. 14, 2012 Rise Set
Actual Time 6:49 AM HST 5:54 PM HST
Civil Twilight 6:25 AM HST 6:18 PM HST
Nautical Twilight 5:58 AM HST 6:45 PM HST
Astronomical Twilight 5:31 AM HST 7:11 PM HST
Moon 7:44 AM HST (11/14) 7:02 PM HST (11/14)
Length of Visible Light 11h 52m
Length of Day
11h 05m
New Moon, 2% of the Moon is Illuminated
Nov 14
New Moon
Nov 20
First Quarter
Nov 28
Full
Dec 6
Last Quarter
Dec 12
New

Hourly Weather History & Observations

Time (HST) Temp. Heat Index Dew Point Humidity Pressure Visibility Wind Dir Wind Speed Gust Speed Precip Events Conditions
12:53 AM 75.9 °F - 66.0 °F 71% 30.15 in 10.0 mi ENE 16.1 mph 25.3 mph N/A   Scattered Clouds
1:53 AM 75.0 °F - 66.0 °F 73% 30.14 in 10.0 mi NE 20.7 mph - 0.03 in   Mostly Cloudy
2:53 AM 75.0 °F - 66.0 °F 73% 30.13 in 10.0 mi ENE 16.1 mph - N/A   Partly Cloudy
3:53 AM 75.0 °F - 66.0 °F 73% 30.13 in 10.0 mi ENE 17.3 mph - 0.00 in   Mostly Cloudy
4:53 AM 75.0 °F - 66.0 °F 73% 30.14 in 10.0 mi NE 20.7 mph - 0.00 in   Mostly Cloudy
5:53 AM 75.9 °F - 66.0 °F 71% 30.14 in 10.0 mi NE 13.8 mph - N/A   Scattered Clouds
6:53 AM 75.9 °F - 64.9 °F 69% 30.16 in 10.0 mi ENE 16.1 mph - N/A   Mostly Cloudy
7:00 AM 75.2 °F - 64.4 °F 69% 30.17 in 7.0 mi NE 20.7 mph 28.8 mph 0.00 in Rain Light Rain
7:25 AM 75.2 °F - 64.4 °F 69% 30.18 in 10.0 mi ENE 19.6 mph - 0.00 in   Scattered Clouds
7:53 AM 77.0 °F - 64.9 °F 66% 30.18 in 10.0 mi ENE 17.3 mph 23.0 mph 0.00 in   Partly Cloudy
8:53 AM 79.0 °F - 64.9 °F 62% 30.18 in 10.0 mi ENE 17.3 mph - 0.00 in   Partly Cloudy
9:53 AM 80.1 °F 82.1 °F 66.0 °F 62% 30.18 in 10.0 mi NE 18.4 mph - N/A   Partly Cloudy
10:53 AM 81.0 °F 83.0 °F 66.0 °F 60% 30.18 in 10.0 mi ENE 16.1 mph - N/A   Scattered Clouds
11:53 AM 82.0 °F 84.5 °F 66.9 °F 60% 30.16 in 10.0 mi NE 16.1 mph - N/A   Scattered Clouds
12:53 PM 82.0 °F 83.8 °F 64.9 °F 56% 30.14 in 10.0 mi NE 17.3 mph - N/A   Partly Cloudy
1:53 PM 80.1 °F 82.1 °F 66.0 °F 62% 30.11 in 10.0 mi NE 17.3 mph - N/A   Mostly Cloudy
2:15 PM 80.6 °F 82.7 °F 66.2 °F 61% 30.11 in 10.0 mi NE 17.3 mph - 0.00 in   Mostly Cloudy
2:53 PM 80.1 °F 81.9 °F 64.9 °F 60% 30.10 in 10.0 mi NE 19.6 mph - 0.00 in   Scattered Clouds
3:53 PM 80.1 °F 82.1 °F 66.0 °F 62% 30.10 in 10.0 mi NE 18.4 mph - N/A   Partly Cloudy
4:53 PM 78.1 °F - 64.9 °F 64% 30.10 in 10.0 mi ENE 18.4 mph 24.2 mph N/A   Partly Cloudy
5:53 PM 75.9 °F - 64.9 °F 69% 30.11 in 10.0 mi ENE 16.1 mph 24.2 mph 0.00 in   Partly Cloudy
6:53 PM 75.9 °F - 64.9 °F 69% 30.12 in 10.0 mi NE 15.0 mph - N/A   Partly Cloudy
7:53 PM 75.0 °F - 66.9 °F 76% 30.14 in 10.0 mi ENE 13.8 mph - 0.04 in   Mostly Cloudy
8:53 PM 75.9 °F - 66.0 °F 71% 30.14 in 10.0 mi NE 15.0 mph - N/A   Partly Cloudy
9:40 PM 75.2 °F - 68.0 °F 78% 30.15 in 7.0 mi NE 18.4 mph - 0.01 in Rain Rain
9:49 PM 73.4 °F - 68.0 °F 83% 30.15 in 10.0 mi NE 21.9 mph 31.1 mph 0.01 in   Overcast
9:53 PM 73.9 °F - 68.0 °F 82% 30.15 in 10.0 mi NE 19.6 mph 31.1 mph 0.01 in   Overcast
10:53 PM 73.9 °F - 66.9 °F 79% 30.15 in 10.0 mi NE 15.0 mph - N/A   Mostly Cloudy
11:53 PM 73.9 °F - 68.0 °F 82% 30.14 in 10.0 mi NE 12.7 mph - 0.00 in   Overcast